Regional Weather Roundup
Issued by NWS

Home | Current Version | Previous Version | Graphics & Text | Print | Product List | Glossary Off
Versions: 1 2 3 4 5 6 7 8 9 10 11 12 13 14 15 16 17 18 19 20 21 22 23 24 25 26 27 28 29 30 31 32 33 34 35 36 37 38 39 40 41 42 43 44 45 46 47 48 49 50

000
ASUS43 KMKX 231911
RWRWI

WISCONSIN REGIONAL WEATHER ROUNDUP
NATIONAL WEATHER SERVICE MILWAUKEE/SULLIVAN WI
200 PM CDT THU OCT 23 2014

NOTE: "FAIR" INDICATES FEW OR NO CLOUDS BELOW 12,000 FEET WITH NO
SIGNIFICANT WEATHER AND/OR OBSTRUCTIONS TO VISIBILITY.

WIZ001-002-006>008-014>016-023>028-232000-
NORTHWEST WISCONSIN

CITY           SKY/WX    TMP DP  RH WIND       PRES   REMARKS
SUPERIOR ARPT  CLOUDY    55  50  85 W7        29.96F
ASHLAND        CLOUDY    52  49  89 SW8       29.98S
HAYWARD        CLOUDY    51  48  89 SW8       29.99S
SIREN          CLOUDY    54  51  91 SW5       29.98S
CUMBERLAND     CLOUDY    50  50 100 SW7       29.99F FOG
RICE LAKE      CLOUDY    51  49  93 S5        30.01F FOG
CHETEK         CLOUDY    50  50  98 CALM      30.01S FOG
LADYSMITH      CLOUDY    48  47  97 S6        30.02F FOG
EAU CLAIRE     CLOUDY    51  49  92 S6        30.01S
MENOMONIE      CLOUDY    52  51  96 S3        30.01F FOG
NEW RICHMOND   CLOUDY    57  52  85 SW6       29.99F
OSCEOLA        CLOUDY    58  54  88 CALM      30.00F
$$

WIZ003>005-009-010-017-018-232000-
NORTH CENTRAL WISCONSIN

CITY           SKY/WX    TMP DP  RH WIND       PRES   REMARKS
MANITOWISH WTR CLOUDY    44  44 100 S8        30.00S FOG
ARBOR VITAE    CLOUDY    45  43  95 S9        30.00F FOG
WOODRUFF       CLOUDY    45  43  95 S9        30.00F FOG
RHINELANDER    LGT RAIN  44  42  93 S6        30.02F
EAGLE RIVER    LGT RAIN  45  44  99 S5        30.01F
LAND O LAKES   DRIZZLE   45  44  95 S8        30.01F
PHILLIPS       CLOUDY    45  44  99 S6        30.00F FOG
TOMAHAWK       LGT RAIN  43  42  95 CALM      30.03S
MEDFORD        CLOUDY    45  44  97 S3        30.02S FOG
MERRILL        LGT RAIN  44  44  99 S3        30.03F
$$

WIZ029-030-035-036-043>047-232000-
CENTRAL WISCONSIN

CITY           SKY/WX    TMP DP  RH WIND       PRES   REMARKS
WAUSAU         LGT RAIN  45  43  93 S6        30.03S
MOSINEE        LGT RAIN  45  45 100 S9        30.05
MARSHFIELD     CLOUDY    47  45  93 S8        30.03F FOG
STEVENS POINT  LGT RAIN  43  42  97 S7        30.05S
WAUPACA        RAIN      48  47  95 SE5       30.06F
WAUTOMA        LGT RAIN  46  45  93 S5        30.06F VSB 1
WISC RAPIDS    LGT RAIN  47  45  93 SW7       30.05F
CAMP DOUGLAS   DRIZZLE   46  46 100 S5        30.04F FOG
$$

WIZ011>013-019>022-031-037>040-048>050-232000-
NORTHEAST WISCONSIN

CITY           SKY/WX    TMP DP  RH WIND       PRES   REMARKS
ANTIGO         LGT RAIN  41  41  99 SE5       30.03F
SHAWANO        LGT RAIN  48  45  90 CALM      30.07F
OCONTO         CLOUDY    53  43  70 SW6       30.07F
STURGEON BAY   PTSUNNY   54  43  66 S13       30.09F
GREEN BAY      LGT RAIN  53  43  68 SW7       30.08F
MANITOWOC      CLOUDY    52  44  74 S10       30.09F
APPLETON       LGT RAIN  50  43  76 SW3       30.08F
CLINTONVILLE   LGT RAIN  45  43  93 SE3       30.06F
OSHKOSH        LGT RAIN  51  44  77 S6        30.06F
$$

WIZ032>034-041-042-053>061-232000-
SOUTHWEST WISCONSIN

CITY           SKY/WX    TMP DP  RH WIND       PRES   REMARKS
LA CROSSE      CLOUDY    50  47  89 S8        30.03F
SPARTA         CLOUDY    47  45  93 CALM      30.05F
VIROQUA        CLOUDY    46  46 100 S3        30.03F
BOSCOBEL       CLOUDY    50  46  86 S5        30.05F
PRAIRIE DU CHI CLOUDY    48  46  90 S5        30.05S
PLATTEVILLE    CLOUDY    47  46  95 S7        30.07S
$$

WIZ056-057-062-063-064-067-068-232000-
SOUTH CENTRAL WISCONSIN

CITY           SKY/WX    TMP DP  RH WIND       PRES   REMARKS
REEDSBURG      RAIN      45  44  97 S6        30.05F
BARABOO/DELLS  RAIN      46  44  93 S3        30.05F
LONE ROCK      LGT RAIN  51  46  83 CALM      30.06F
MINERAL POINT  RAIN      48  46  93 S5        30.06F
MADISON        LGT RAIN  52  45  77 S6        30.06F
MIDDLETON      CLOUDY    51  46  82 SW3       30.07S
WATERTOWN      LGT RAIN  54  45  71 S7        30.05F
MONROE         CLOUDY    52  46  82 S9        30.06S
JANESVILLE     CLOUDY    59  43  55 S12       30.06F
$$

WIZ051-052-058>065-066-070>072-232000-
SOUTHEAST WISCONSIN

CITY           SKY/WX    TMP DP  RH WIND       PRES   REMARKS
MILWAUKEE      CLOUDY    57  42  57 S10       30.09F
WAUKESHA       SUNNY     54  39  58 S10       30.10F
MILWAUKEE/TIMM SUNNY     57  39  51 S7        30.10F
RACINE         PTSUNNY   57  43  59 SE12      30.11F
BURLINGTON     CLOUDY    58  41  52 S8        30.08F
KENOSHA        CLOUDY    59  43  55 SW8       30.09F
FOND DU LAC    CLOUDY    54  42  64 S9        30.07F
SHEBOYGAN      CLOUDY    53  42  66 SE9       30.09F
WEST BEND      CLOUDY    55  39  54 S7        30.07F
JUNEAU         LGT RAIN  54  42  64 S8        30.06F
$$

LSZ147-162-232000-
LAKE SUPERIOR

STATION/POSITION TIME  TEMP    WIND        PRES    WAVE
                       AIR SEA DIR/SP/G            HT/PER
                 (UTC) (F)     (DEG/KT/KT) (MB)    (FT/S)
W MID LAKE BUOY  1850   47 46  200/  8/ 10 1015.0F   1/ 3
DEVILS ISLAND    1900   50     190/  5/  7 1015.0F
PORT WING        1800   52     210/  6/  9 1014.9F
SAXON HARBOR     1800   52     200/  4/ 13 1015.2F
$$

LMZ867-665-643>646-232000-
LAKE MICHIGAN

STATION/POSITION TIME  TEMP    WIND        PRES    WAVE
                       AIR SEA DIR/SP/G            HT/PER
                 (UTC) (F)     (DEG/KT/KT) (MB)    (FT/S)
CHAMBERS ISLAND  1800   55     170/  7/ 12 1019.0F
N MID LAKE BUOY  1850   50 51  200/ 16/ 19 1019.9F   3/ 5
NORTHPORT PIER   1800   53     150/ 11/ 17 1019.3F
SISTER BAY       1643          190/ 16/ 18   N/A
ALGOMA LAKESHORE 1741          220/ 18/ 21   N/A
KEWAUNEE LAKESHO 1800   50     170/ 13/ 17 1018.7F
SHEBOYGAN LAKESH 1900   50 50  180/ 15/ 16 1019.5F
PORT WASHINGTON  1840   52     170/  8/ 13 1020.0F
ATWATER BUOY     1900   52     140/ 14/ 17 1019.6F
MILWAUKEE LAKESH 1800   51     130/ 12/ 16   N/A
S MID LAKE BUOY  1850   52 54  180/ 14/ 16 1020.7F   2/ 4
KENOSHA   LAKESH 1900   54     150/ 14/ 16 1018.6F
$$

TC  - TEMPERATURE IN CELSIUS
VSB - VISIBILITY IN STATUTE MILES
WCI - WIND CHILL INDEX
HX  - HEAT INDEX




USA.gov is the U.S. government's official web portal to all federal, state and local government web resources and services.